SCP
-0 -0 0 0 0 0 0 0 -0 0 -0 0 -0 0 0 0 0 0 0 0 0 0 0 0 0 -0 -0 -0 -0 -0 -0 -0 0 0 0 0 0 0 0 0 0 0 0 0 0 0 0 0 0 0 0 0 0 0
-0 -0 -0 -0 -0 0 0 0 0 -0 0 0 -0 -0 -0 0 0 0 0 0 0 0 0 0 0 0 0 0 -0 0 -0 0 0 0 0 0 0 0 0 0 0 0 0 0 0 0 0 0 0 0 0 0 0 0
-0 -0 -0 -0 -0 -0 0 0 0 0 -0 0 -0 -0 -0 -0 -0 -0 -0 0 0 0 0 -0 -0 0 0 0 -0 0 0 0 0 0 0 0 0 0 0 0 0 0 0 0 0 0 0 0 0 0 0 0 0 0
-0 -0 -0 -0 -0 -0 -0 0 0 0 -0 -0 -0 -0 -0 -0 -0 -0 0 0 0 0 0 0 0 0 0 0 0 0 0 0 0 0 0 0 0 0 0 0 0 0 0 0 0 0 0 0 0 0 0 0 0 0
-0 -0 -0 -0 -0 -0 -0 -0 0 0 0 -0 0 -0 -0 -0 -0 -0 0 0 0 0 0 0 0 0 0 0 0 0 0 0 0 0 0 0 0 0 0 0 0 0 0 0 0 0 0 0 0 0 0 0 0 0
-0 -0 -0 -0 -0 -0 0 0 -0 -0 -0 -0 0 -0 -0 0 0 0 0 0 0 0 0 0 0 0 0 0 0 0 0 0 0 0 0 0 0 0 0 0 0 0 0 0 -0 0 0 0 0 0 0 0 0 0
0 -0 -0 -0 -0 -0 -0 -0 -0 0 0 -0 -0 -0 -0 0 0 -0 0 0 0 0 0 0 0 0 0 0 0 0 0 0 0 0 0 0 0 -0 0 -0 -0 -0 -0 0 0 -0 0 -0 -0 0 0 0 0 0
0 0 -0 -0 -0 -0 -0 -0 0 0 0 -0 -0 -0 -0 -0 -0 0 0 0 0 0 0 0 0 0 0 0 0 0 0 0 -0 0 0 0 0 0 0 -0 -0 -0 -0 -0 -0 -0 -0 -0 -0 -0 -0 -0 -0 0
0 0 0 0 -0 -0 -0 -0 0 0 -0 0 0 0 -0 -0 -0 0 -0 0 0 0 0 0 0 -0 -0 0 0 -0 0 -0 -0 -0 0 0 0 -0 -0 0 0 -0 -0 -0 -0 0 0 0 -0 -0 -0 -0 -0 -0
0 0 0 0 0 -0 -0 0 -0 -0 0 -0 -0 -0 -0 -0 -0 0 -0 0 0 0 0 0 0 0 0 0 -0 -0 -0 -0 0 0 -0 -0 -0 -0 -0 0 0 0 0 -0 0 0 0 0 0 0 0 0 -0 -0
0 0 0 0 0 0 0 -0 -0 0 -0 -0 0 0 -0 -0 -0 -0 0 0 -0 0 0 0 0 0 -0 -0 -0 -0 -0 -0 -0 -0 -0 -0 -0 -0 -0 -0 -0 0 0 0 0 0 0 0 0 0 0 0 0 0
0 0 0 0 0 0 0 -0 -0 0 0 0 0 0 0 0 0 0 0 0 0 0 0 0 0 0 -0 -0 0 0 -0 -0 0 -0 -0 0 -0 -0 -0 0 -0 -0 -0 -0 -0 0 0 0 0 0 0 0 0 0
0 0 0 0 0 0 0 0 0 -0 0 0 0 0 0 0 0 0 0 0 0 0 0 0 0 0 0 0 -0 0 -0 0 -0 0 -0 -0 -0 -0 0 0 -0 -0 -0 -0 -0 -0 -0 -0 -0 0 0 0 0 0
0 0 0 0 0 0 0 0 0 0 0 0 0 0 0 0 -0 -0 0 0 0 0 0 0 0 0 0 0 0 0 0 0 0 0 0 0 0 0 0 0 0 0 0 0 -0 -0 -0 -0 -0 0 0 0 0 0
0 0 0 0 0 0 0 0 0 0 0 0 0 0 0 0 0 0 0 0 0 -0 -0 -0 0 0 0 0 0 0 0 0 -0 -0 0 0 0 0 0 0 0 0 0 0 0 0 0 0 0 0 0 0 0 0
0 0 0 0 0 0 0 0 0 0 0 0 0 0 0 0 0 0 0 0 0 0 0 0 0 0 0 0 0 0 0 -0 0 0 0 0 0 0 0 0 0 0 0 0 0 0 0 0 0 0 0 0 0 0
0 0 0 0 0 0 0 0 0 0 0 0 0 0 0 0 0 0 0 0 0 0 0 0 0 0 0 0 0 0 0 0 0 0 0 0 0 0 0 0 0 0 0 0 0 0 0 0 0 0 0 0 0 0
0 0 0 0 0 0 0 0 0 0 0 0 0 0 0 0 0 0 0 0 0 0 0 0 0 0 0 0 0 0 0 -0 0 0 0 0 0 0 0 0 0 0 0 0 0 0 0 0 0 0 0 0 0 0
0 0 0 0 0 0 0 0 0 0 0 0 0 0 0 0 0 0 0 0 0 0 0 0 0 0 0 0 0 0 0 0 0 0 0 0 0 0 0 0 0 0 0 0 0 0 0 0 0 0 0 0 0 0
0 0 0 0 0 0 0 0 0 0 0 0 0 0 0 0 0 0 0 0 0 0 0 0 0 0 0 0 0 0 0 0 0 0 0 0 0 0 0 0 0 0 0 0 0 0 0 0 0 0 0 0 0 0
0 0 0 0 0 0 0 0 0 0 0 0 0 0 0 0 0 0 0 0 0 0 0 0 0 0 0 0 0 0 0 0 0 0 0 0 0 0 0 0 0 0 0 0 0 0 0 0 0 0 0 0 0 0
0 0 0 0 0 0 0 0 0 0 0 0 0 0 0 0 0 0 0 0 0 0 0 0 0 0 0 0 0 0 0 -0 -0 -0 0 0 0 0 0 0 0 0 0 0 0 0 0 0 0 0 0 0 0 0
0 0 0 0 0 0 0 0 0 0 0 0 0 0 0 0 0 0 0 0 0 0 0 0 0 0 -0 -0 -0 -0 -0 -0 0 0 -0 -0 -0 0 0 0 0 0 0 0 0 0 0 0 0 0 0 0 0 0
0 0 0 0 0 0 0 0 0 0 0 0 0 0 0 0 0 0 0 0 0 0 0 0 0 0 0 0 0 0 0 0 0 0 0 0 0 0 0 0 0 0 0 0 0 0 0 0 0 0 0 0 0 0
0 0 0 0 0 0 0 0 0 0 0 0 0 0 0 0 0 0 0 0 0 0 0 0 0 0 0 0 0 0 0 0 0 0 0 0 0 0 0 0 0 0 0 0 0 0 0 0 0 0 0 0 0 0
0 0 0 0 0 0 0 0 0 0 0 0 0 0 0 0 0 0 0 0 0 0 0 0 0 0 0 0 0 0 0 0 0 0 0 0 0 0 0 0 0 0 0 0 0 0 0 0 0 0 0 0 0 0
0 0 0 0 0 0 0 0 0 0 0 0 0 0 0 0 0 0 0 0 0 0 0 0 0 0 0 0 0 0 0 0 0 0 0 0 0 0 0 0 0 0 0 0 0 0 0 0 0 0 0 0 0 0
0 0 0 0 0 0 0 0 0 0 0 0 0 0 0 0 0 0 0 0 0 0 0 0 0 0 0 0 0 0 0 0 0 0 0 0 0 0 0 0 0 0 0 0 0 0 0 0 0 0 0 0 0 0
0 0 0 0 0 0 0 0 0 0 0 0 0 0 0 0 0 0 0 0 0 0 0 0 0 0 0 0 0 0 0 0 0 0 0 0 0 0 0 0 0 0 0 0 0 0 0 0 0 0 0 0 0 0
0 0 0 0 0 0 0 0 0 0 0 0 0 0 0 0 0 0 0 0 0 0 0 0 -0 -0 -0 -0 0 0 0 0 0 0 0 0 0 0 0 0 0 0 0 0 0 0 0 0 0 0 0 0 0 0
0 0 0 0 0 0 0 0 0 0 0 0 0 0 0 0 0 0 0 0 0 0 0 0 0 0 0 0 0 0 0 0 0 0 0 0 0 0 0 0 0 0 0 0 0 0 0 0 0 0 0 0 0 0
0 0 0 0 0 0 0 0 0 0 0 0 0 0 0 0 0 0 0 0 0 0 0 0 0 0 0 0 0 0 0 0 0 0 0 0 0 0 0 0 0 0 0 0 0 0 0 0 0 0 0 0 0 0
0 0 0 0 0 0 0 0 0 0 0 0 0 0 0 0 0 0 0 0 0 0 0 0 0 0 0 0 0 0 0 0 0 0 0 0 0 0 0 0 0 0 0 0 0 0 0 0 0 0 0 0 0 0
Wind_Speed_500mb
12 14 17 20 18 21 25 29 31 35 34 26 21 18 19 22 27 14 13 11 9 12 14 9 11 6 8 5 5 12 7 3 3 7 5 4 5 7 5 1 7 12 12 8 11 9 20 7 5 11 6 8 2 4
12 7 11 15 17 16 19 22 23 26 26 22 19 17 21 24 30 33 30 18 15 10 14 12 15 14 9 12 10 15 2 5 6 3 3 2 6 4 3 6 7 9 11 5 13 9 3 7 19 16 16 11 8 6
3 3 6 11 14 16 17 21 19 19 21 20 17 10 4 6 13 19 25 23 14 12 10 7 6 11 11 12 11 5 5 7 6 6 4 1 9 4 7 10 7 10 9 7 1 13 26 33 37 37 32 24 15 9
8 4 1 11 12 16 16 17 19 19 19 19 20 18 12 12 14 14 11 12 11 6 5 6 10 10 6 8 11 10 6 11 7 9 3 4 6 7 4 4 7 4 16 12 16 22 27 48 49 46 41 34 32 23
13 9 5 5 7 14 15 20 23 21 20 17 20 19 16 17 18 19 16 12 5 2 2 2 6 11 9 8 11 12 8 7 6 6 5 5 2 5 2 4 12 18 18 13 18 16 25 18 19 25 29 37 37 31
14 14 12 9 7 7 17 22 24 25 24 21 19 21 21 19 17 13 8 4 7 7 2 3 5 5 7 7 8 10 12 10 6 5 5 2 4 3 6 9 19 39 49 50 45 41 34 36 32 30 25 22 29 34
11 16 16 18 14 6 4 12 16 20 24 23 22 24 29 29 28 16 8 2 2 3 6 4 3 2 9 12 9 7 9 8 6 3 5 3 4 6 6 14 33 26 36 46 52 50 36 47 30 27 33 33 32 33
13 11 13 18 22 18 12 5 6 7 11 14 19 25 29 27 23 15 18 14 8 4 4 2 1 3 7 5 4 3 0 2 4 3 2 3 2 5 11 39 46 39 34 38 40 40 44 37 28 29 33 35 37 38
19 14 11 13 23 24 20 15 11 12 9 8 3 2 2 2 6 7 9 5 7 8 4 5 5 3 7 3 5 3 3 5 4 4 2 3 6 13 21 32 29 21 16 19 17 24 34 40 37 36 35 34 34 33
26 20 16 14 18 26 27 24 18 15 18 10 5 5 5 3 8 12 6 5 6 5 6 2 7 5 4 8 4 1 2 2 4 3 5 7 9 50 57 50 45 41 36 33 30 30 31 35 33 33 34 34 35 35
34 28 23 20 19 22 25 27 27 25 18 9 6 5 4 12 7 4 3 2 1 5 3 5 6 5 7 4 5 4 2 1 5 4 4 5 8 9 11 6 2 7 13 21 28 36 31 26 23 24 27 29 30 30
40 34 29 26 24 23 22 24 28 28 11 7 4 6 8 6 3 4 2 1 6 2 8 6 8 8 7 6 4 5 2 2 6 3 4 7 9 22 18 9 8 12 15 17 18 20 23 23 22 21 21 23 24 26
45 40 33 29 28 26 25 25 30 28 20 9 7 5 5 5 5 9 11 6 5 15 18 13 6 7 6 4 6 4 7 5 0 4 7 10 15 11 8 9 10 14 15 17 18 18 20 20 19 19 19 20 24 26
50 43 38 32 30 31 30 30 32 30 17 9 9 7 9 8 11 10 6 4 9 12 31 20 13 3 5 5 2 5 3 3 5 6 11 6 20 9 13 24 16 12 13 15 16 19 20 21 20 20 21 22 23 24
54 48 43 38 31 35 37 39 31 33 11 10 9 10 14 7 7 6 10 10 13 33 34 16 10 5 4 5 1 5 3 9 11 9 6 11 4 5 8 11 12 15 17 16 17 20 23 24 24 22 22 23 24 28
53 45 51 43 35 42 41 34 33 28 9 11 14 7 7 4 8 11 19 13 31 42 20 9 6 5 7 4 7 15 6 13 7 7 27 17 17 16 14 16 18 21 23 24 25 25 27 30 27 24 26 26 27 28
54 60 57 48 42 47 43 44 28 18 14 11 12 26 17 7 3 14 25 22 45 31 6 7 10 9 6 5 8 10 12 7 16 27 21 16 17 17 21 25 27 28 28 29 29 29 29 30 34 35 33 28 28 29
72 68 50 51 52 46 51 30 18 16 18 22 9 13 19 18 12 12 22 35 38 21 14 6 14 10 11 11 10 10 33 39 31 22 23 25 26 24 23 24 26 28 29 30 31 31 32 36 40 37 31 30 31 34
77 70 59 55 55 39 25 23 18 11 23 11 14 16 13 10 24 19 26 47 36 26 10 10 10 10 11 13 15 22 30 31 29 29 35 32 33 29 23 24 26 30 30 30 30 30 30 32 35 35 37 40 41 38
64 60 59 53 64 25 14 13 19 13 11 16 16 13 11 9 13 21 26 44 32 13 10 9 14 15 23 41 42 45 40 35 34 39 41 34 32 32 29 34 35 32 32 33 32 31 32 33 39 44 47 48 49 46
68 66 63 61 59 24 11 15 15 10 10 12 14 16 6 6 7 11 15 36 20 15 10 45 65 77 67 59 53 51 52 52 48 46 46 47 46 52 54 49 46 45 41 41 39 36 34 33 33 40 48 51 48 47
61 88 60 60 21 19 14 20 9 16 11 9 17 14 6 7 9 12 22 19 19 29 41 54 64 65 68 70 69 70 69 69 68 68 73 75 77 74 72 65 63 62 60 54 49 45 37 33 36 38 45 45 48 50
84 62 35 23 16 22 8 20 12 13 6 11 12 7 5 6 10 18 10 20 28 42 57 70 75 70 72 71 71 68 67 69 71 69 68 66 66 67 67 68 66 66 62 55 48 44 39 38 40 41 43 47 50 51
67 51 22 35 27 12 17 10 10 11 10 8 8 8 6 8 14 7 8 14 30 30 30 32 32 34 34 34 29 23 26 31 37 41 42 48 54 54 51 56 57 56 53 50 49 46 44 42 41 41 43 46 48 50
24 20 21 13 15 13 10 10 8 7 7 9 10 6 7 14 6 8 8 11 21 16 10 8 13 17 17 9 6 10 15 15 17 19 17 25 29 30 31 33 37 38 39 45 47 48 46 41 39 41 43 45 46 45
14 22 28 22 13 14 17 16 18 14 9 10 5 9 10 6 6 13 7 8 8 11 7 2 2 5 7 11 14 14 17 18 23 22 18 19 19 22 25 27 23 17 26 33 39 42 42 42 43 43 43 43 43 45
19 10 12 16 23 22 10 10 13 7 13 14 13 13 10 10 14 7 7 11 9 10 5 4 6 8 11 15 20 22 24 24 24 26 29 29 28 28 28 30 29 28 32 29 29 32 35 38 42 44 43 42 40 40
14 26 18 28 13 17 11 8 13 19 12 20 25 14 21 16 3 4 7 9 4 3 8 11 13 17 22 26 30 33 34 35 36 37 36 36 35 34 32 31 29 28 30 31 28 29 30 32 33 33 33 30 29 30
12 35 33 8 8 10 12 13 14 17 34 34 12 9 8 6 7 6 6 3 3 7 12 17 21 27 32 36 39 40 42 43 44 44 42 37 31 28 27 26 27 27 27 27 25 24 22 21 21 20 20 19 18 17
14 42 13 9 13 11 9 18 18 35 23 29 18 16 13 13 13 11 11 11 12 17 23 30 36 39 41 43 43 37 38 38 38 38 39 35 30 27 24 20 18 20 22 20 19 18 17 15 14 13 11 9 9 11
49 17 10 8 6 4 17 24 35 32 27 19 18 12 15 17 13 13 20 20 21 23 26 28 28 33 35 36 39 41 37 32 29 32 33 32 29 22 16 11 10 10 11 13 14 13 12 10 9 8 8 10 13 17
15 9 9 9 5 19 26 11 16 11 12 9 7 10 12 10 8 11 30 24 22 25 30 34 35 32 30 30 30 32 33 31 29 30 30 26 21 19 15 13 10 12 13 13 13 12 10 9 7 8 11 14 19 23
10 10 14 16 10 10 15 13 8 7 9 8 8 7 7 9 10 11 27 33 29 32 33 31 25 23 23 22 22 23 23 23 21 18 12 3 10 11 9 9 11 12 11 9 6 4 4 7 11 14 18 22 25 27
Wind_Direction_500mb
56 74 98 97 84 101 115 119 126 139 133 127 113 99 73 59 51 49 108 120 113 107 142 139 142 134 128 151 155 151 142 182 166 198 224 175 240 184 242 264 186 191 186 197 218 242 253 137 146 222 354 354 360 225
35 89 111 121 116 120 132 139 141 152 150 141 136 117 89 71 51 48 63 73 112 118 140 140 142 147 160 158 127 168 25 149 152 154 226 170 209 195 308 259 206 237 226 226 215 227 330 250 262 271 274 302 287 229
112 55 156 148 152 149 158 158 159 165 174 172 167 168 138 48 33 30 33 35 56 95 102 128 137 153 165 171 154 189 200 180 182 172 149 9 246 188 223 233 236 224 195 234 272 232 249 262 269 268 265 268 262 223
224 195 227 183 175 175 174 176 176 183 197 208 221 230 251 287 310 335 351 6 25 80 132 195 204 183 208 202 204 208 223 205 186 169 182 216 257 200 254 318 253 331 157 213 253 266 283 272 263 267 272 253 239 234
231 203 179 188 190 187 190 193 195 198 202 209 229 247 262 282 295 305 313 310 295 236 95 115 206 224 219 209 218 223 225 197 178 172 199 232 184 204 184 290 246 189 222 215 248 241 226 261 283 293 268 249 241 237
232 215 200 187 182 189 201 210 213 213 216 216 224 246 262 273 280 305 300 313 234 216 67 197 245 217 201 168 192 185 207 222 228 230 227 218 227 254 263 252 247 233 234 236 249 264 250 259 267 271 271 267 248 237
220 212 217 206 184 168 192 203 225 224 225 221 231 253 260 264 268 255 237 192 269 221 172 133 218 251 188 186 191 194 206 237 231 278 233 274 183 238 250 255 260 257 262 259 254 260 268 265 258 256 254 254 250 245
214 207 209 202 206 187 173 173 144 178 211 223 229 239 250 254 261 256 240 252 233 164 173 196 144 193 167 164 132 135 220 224 279 304 258 264 245 237 256 246 261 260 259 257 258 258 258 259 260 254 248 245 243 242
217 217 216 204 199 203 193 185 203 177 172 159 150 173 100 168 185 193 165 128 158 187 214 199 216 163 166 117 99 92 198 237 272 250 167 259 196 228 232 249 253 266 258 282 277 260 255 257 257 251 250 247 244 244
224 225 229 222 203 203 206 204 210 234 210 217 243 252 256 258 141 127 143 190 215 231 209 209 149 139 125 165 135 218 199 268 246 112 313 230 255 255 259 260 266 267 272 269 265 271 275 271 268 261 256 252 252 252
225 225 228 231 220 210 212 210 196 222 234 216 231 241 221 160 159 189 173 207 318 218 197 151 169 135 172 168 172 211 179 151 259 108 265 246 267 245 281 245 167 244 264 268 261 259 261 267 268 268 263 255 246 243
223 224 224 228 226 217 215 213 196 214 209 221 215 173 171 193 173 224 192 216 224 249 159 169 153 135 156 153 179 174 235 182 262 360 258 257 248 262 252 241 254 283 273 271 265 252 249 256 257 258 256 244 237 236
221 221 221 220 221 215 209 196 198 203 212 188 217 202 183 192 192 212 196 200 227 173 173 161 130 144 124 127 91 197 212 228 56 228 242 240 264 256 248 229 265 282 266 265 263 253 247 245 248 250 248 237 229 226
221 217 216 214 215 211 203 197 195 191 176 208 192 233 209 192 237 203 205 133 156 150 152 137 116 137 139 142 43 227 66 294 248 238 237 240 246 281 240 239 251 285 285 271 265 254 246 241 238 240 242 237 228 223
219 217 216 215 214 204 197 203 195 183 195 217 194 231 214 229 225 220 176 145 152 152 142 119 102 156 123 121 20 119 182 243 228 234 232 247 235 208 214 247 272 288 286 279 276 266 253 244 239 234 232 227 220 216
209 214 216 213 209 198 202 188 186 184 220 225 228 238 213 203 193 208 199 190 167 158 143 124 129 160 190 143 176 212 215 228 234 218 237 246 249 244 257 271 287 290 281 280 283 275 258 248 243 239 231 227 222 222
194 209 211 206 203 197 186 181 172 196 223 222 239 222 202 256 205 178 188 188 174 160 185 152 182 196 106 205 234 203 217 221 217 226 220 237 246 258 272 278 286 290 287 283 283 276 264 245 238 236 233 230 226 225
203 211 205 200 204 185 182 176 192 214 229 227 216 212 206 209 195 194 189 176 168 193 169 200 138 191 206 205 218 222 228 239 243 234 235 247 254 258 267 279 284 289 290 285 280 271 258 245 241 240 235 232 229 228
203 206 201 202 187 171 178 198 210 226 223 216 221 218 212 219 216 211 197 186 185 182 177 178 234 211 217 219 230 237 244 246 256 265 263 268 258 247 251 266 279 288 294 292 287 280 270 259 251 241 234 233 234 235
201 202 202 192 180 176 195 205 194 227 203 201 203 189 193 205 208 207 200 189 185 177 220 219 224 222 214 231 243 262 273 274 268 269 271 272 263 257 271 276 271 272 283 291 290 285 272 258 245 235 230 231 234 237
185 179 192 189 187 197 209 196 199 198 179 179 174 165 182 175 178 169 184 180 195 220 236 232 242 246 249 256 262 267 270 273 273 277 279 278 270 274 279 275 267 267 273 278 279 276 268 258 248 238 234 235 238 242
170 182 178 177 181 200 227 205 201 167 160 152 154 167 156 177 171 172 169 194 233 232 227 245 252 259 265 271 274 274 276 276 276 274 272 272 271 272 273 274 271 269 272 273 268 264 263 254 245 236 233 234 236 239
165 162 165 162 188 200 202 188 175 176 160 168 150 160 186 171 180 164 231 231 248 250 251 255 260 264 269 273 275 278 280 278 274 272 271 272 273 273 272 272 269 268 267 265 262 258 258 251 244 238 234 232 235 238
163 162 160 184 198 147 154 147 158 143 132 169 177 186 179 155 159 189 252 247 246 250 265 274 267 268 274 280 291 300 292 284 282 280 277 273 271 275 275 272 269 266 264 261 252 250 251 252 248 242 240 240 241 244
142 172 181 170 168 125 148 139 155 199 188 169 173 168 170 159 190 216 236 257 237 218 205 261 277 282 292 308 341 359 5 347 321 317 311 295 288 283 284 281 274 266 256 253 249 249 249 252 251 248 247 248 250 252
180 182 182 168 156 173 167 153 188 178 145 160 171 119 146 166 194 239 219 234 208 193 197 191 318 309 315 334 344 347 341 347 348 342 326 322 312 305 302 290 275 252 254 255 253 250 247 249 250 249 250 251 252 255
172 155 150 145 148 141 116 103 140 161 174 177 163 167 165 193 227 233 185 169 170 185 217 304 323 328 332 340 339 336 334 335 331 324 320 313 307 305 303 299 291 273 256 254 246 243 247 250 251 251 253 254 257 260
141 155 152 171 145 170 135 151 160 189 166 145 140 181 178 200 230 159 144 150 169 303 321 325 330 328 323 320 316 314 313 312 309 305 303 301 297 293 288 288 286 272 259 258 259 253 246 245 248 250 252 255 255 258
112 138 125 117 133 179 203 182 198 189 162 168 168 161 172 124 123 121 107 70 346 325 317 314 316 314 313 312 311 309 306 303 301 298 294 292 294 287 285 282 276 268 259 248 245 242 242 238 235 237 239 240 245 254
144 156 108 139 158 194 192 183 164 160 155 150 136 122 121 125 111 71 33 9 346 334 330 328 325 322 318 314 311 313 310 306 299 292 289 289 291 290 284 276 265 254 247 241 234 232 229 221 214 215 223 231 247 267
142 138 105 110 120 131 145 143 145 143 142 151 146 130 135 142 128 52 20 1 351 343 336 331 329 324 321 318 317 317 322 313 303 295 292 287 270 268 258 259 255 237 217 202 194 194 195 195 196 211 241 265 275 280
140 152 138 121 120 141 139 133 141 135 141 140 127 126 128 121 92 47 11 6 0 357 356 349 342 340 332 329 327 325 322 322 315 306 298 287 251 238 245 267 235 203 189 178 171 172 181 203 230 256 270 280 288 293
104 93 93 112 122 178 169 138 124 93 85 85 67 85 81 84 92 53 20 14 11 6 1 356 349 351 355 355 355 354 353 351 349 347 340 251 206 227 227 182 156 149 150 158 178 209 251 278 286 292 295 297 297 297
Wind_Speed_850mb
12 14 17 20 18 21 25 29 31 35 34 26 21 18 19 22 27 14 13 11 9 12 14 9 11 6 8 5 5 12 7 3 3 7 5 4 5 7 5 1 7 12 12 8 11 9 20 7 5 11 6 8 2 4
12 7 11 15 17 16 19 22 23 26 26 22 19 17 21 24 30 33 30 18 15 10 14 12 15 14 9 12 10 15 2 5 6 3 3 2 6 4 3 6 7 9 11 5 13 9 3 7 19 16 16 11 8 6
3 3 6 11 14 16 17 21 19 19 21 20 17 10 4 6 13 19 25 23 14 12 10 7 6 11 11 12 11 5 5 7 6 6 4 1 9 4 7 10 7 10 9 7 1 13 26 33 37 37 32 24 15 9
8 4 1 11 12 16 16 17 19 19 19 19 20 18 12 12 14 14 11 12 11 6 5 6 10 10 6 8 11 10 6 11 7 9 3 4 6 7 4 4 7 4 16 12 16 22 27 48 49 46 41 34 32 23
13 9 5 5 7 14 15 20 23 21 20 17 20 19 16 17 18 19 16 12 5 2 2 2 6 11 9 8 11 12 8 7 6 6 5 5 2 5 2 4 12 18 18 13 18 16 25 18 19 25 29 37 37 31
14 14 12 9 7 7 17 22 24 25 24 21 19 21 21 19 17 13 8 4 7 7 2 3 5 5 7 7 8 10 12 10 6 5 5 2 4 3 6 9 19 39 49 50 45 41 34 36 32 30 25 22 29 34
11 16 16 18 14 6 4 12 16 20 24 23 22 24 29 29 28 16 8 2 2 3 6 4 3 2 9 12 9 7 9 8 6 3 5 3 4 6 6 14 33 26 36 46 52 50 36 47 30 27 33 33 32 33
13 11 13 18 22 18 12 5 6 7 11 14 19 25 29 27 23 15 18 14 8 4 4 2 1 3 7 5 4 3 0 2 4 3 2 3 2 5 11 39 46 39 34 38 40 40 44 37 28 29 33 35 37 38
19 14 11 13 23 24 20 15 11 12 9 8 3 2 2 2 6 7 9 5 7 8 4 5 5 3 7 3 5 3 3 5 4 4 2 3 6 13 21 32 29 21 16 19 17 24 34 40 37 36 35 34 34 33
26 20 16 14 18 26 27 24 18 15 18 10 5 5 5 3 8 12 6 5 6 5 6 2 7 5 4 8 4 1 2 2 4 3 5 7 9 50 57 50 45 41 36 33 30 30 31 35 33 33 34 34 35 35
34 28 23 20 19 22 25 27 27 25 18 9 6 5 4 12 7 4 3 2 1 5 3 5 6 5 7 4 5 4 2 1 5 4 4 5 8 9 11 6 2 7 13 21 28 36 31 26 23 24 27 29 30 30
40 34 29 26 24 23 22 24 28 28 11 7 4 6 8 6 3 4 2 1 6 2 8 6 8 8 7 6 4 5 2 2 6 3 4 7 9 22 18 9 8 12 15 17 18 20 23 23 22 21 21 23 24 26
45 40 33 29 28 26 25 25 30 28 20 9 7 5 5 5 5 9 11 6 5 15 18 13 6 7 6 4 6 4 7 5 0 4 7 10 15 11 8 9 10 14 15 17 18 18 20 20 19 19 19 20 24 26
50 43 38 32 30 31 30 30 32 30 17 9 9 7 9 8 11 10 6 4 9 12 31 20 13 3 5 5 2 5 3 3 5 6 11 6 20 9 13 24 16 12 13 15 16 19 20 21 20 20 21 22 23 24
54 48 43 38 31 35 37 39 31 33 11 10 9 10 14 7 7 6 10 10 13 33 34 16 10 5 4 5 1 5 3 9 11 9 6 11 4 5 8 11 12 15 17 16 17 20 23 24 24 22 22 23 24 28
53 45 51 43 35 42 41 34 33 28 9 11 14 7 7 4 8 11 19 13 31 42 20 9 6 5 7 4 7 15 6 13 7 7 27 17 17 16 14 16 18 21 23 24 25 25 27 30 27 24 26 26 27 28
54 60 57 48 42 47 43 44 28 18 14 11 12 26 17 7 3 14 25 22 45 31 6 7 10 9 6 5 8 10 12 7 16 27 21 16 17 17 21 25 27 28 28 29 29 29 29 30 34 35 33 28 28 29
72 68 50 51 52 46 51 30 18 16 18 22 9 13 19 18 12 12 22 35 38 21 14 6 14 10 11 11 10 10 33 39 31 22 23 25 26 24 23 24 26 28 29 30 31 31 32 36 40 37 31 30 31 34
77 70 59 55 55 39 25 23 18 11 23 11 14 16 13 10 24 19 26 47 36 26 10 10 10 10 11 13 15 22 30 31 29 29 35 32 33 29 23 24 26 30 30 30 30 30 30 32 35 35 37 40 41 38
64 60 59 53 64 25 14 13 19 13 11 16 16 13 11 9 13 21 26 44 32 13 10 9 14 15 23 41 42 45 40 35 34 39 41 34 32 32 29 34 35 32 32 33 32 31 32 33 39 44 47 48 49 46
68 66 63 61 59 24 11 15 15 10 10 12 14 16 6 6 7 11 15 36 20 15 10 45 65 77 67 59 53 51 52 52 48 46 46 47 46 52 54 49 46 45 41 41 39 36 34 33 33 40 48 51 48 47
61 88 60 60 21 19 14 20 9 16 11 9 17 14 6 7 9 12 22 19 19 29 41 54 64 65 68 70 69 70 69 69 68 68 73 75 77 74 72 65 63 62 60 54 49 45 37 33 36 38 45 45 48 50
84 62 35 23 16 22 8 20 12 13 6 11 12 7 5 6 10 18 10 20 28 42 57 70 75 70 72 71 71 68 67 69 71 69 68 66 66 67 67 68 66 66 62 55 48 44 39 38 40 41 43 47 50 51
67 51 22 35 27 12 17 10 10 11 10 8 8 8 6 8 14 7 8 14 30 30 30 32 32 34 34 34 29 23 26 31 37 41 42 48 54 54 51 56 57 56 53 50 49 46 44 42 41 41 43 46 48 50
24 20 21 13 15 13 10 10 8 7 7 9 10 6 7 14 6 8 8 11 21 16 10 8 13 17 17 9 6 10 15 15 17 19 17 25 29 30 31 33 37 38 39 45 47 48 46 41 39 41 43 45 46 45
14 22 28 22 13 14 17 16 18 14 9 10 5 9 10 6 6 13 7 8 8 11 7 2 2 5 7 11 14 14 17 18 23 22 18 19 19 22 25 27 23 17 26 33 39 42 42 42 43 43 43 43 43 45
19 10 12 16 23 22 10 10 13 7 13 14 13 13 10 10 14 7 7 11 9 10 5 4 6 8 11 15 20 22 24 24 24 26 29 29 28 28 28 30 29 28 32 29 29 32 35 38 42 44 43 42 40 40
14 26 18 28 13 17 11 8 13 19 12 20 25 14 21 16 3 4 7 9 4 3 8 11 13 17 22 26 30 33 34 35 36 37 36 36 35 34 32 31 29 28 30 31 28 29 30 32 33 33 33 30 29 30
12 35 33 8 8 10 12 13 14 17 34 34 12 9 8 6 7 6 6 3 3 7 12 17 21 27 32 36 39 40 42 43 44 44 42 37 31 28 27 26 27 27 27 27 25 24 22 21 21 20 20 19 18 17
14 42 13 9 13 11 9 18 18 35 23 29 18 16 13 13 13 11 11 11 12 17 23 30 36 39 41 43 43 37 38 38 38 38 39 35 30 27 24 20 18 20 22 20 19 18 17 15 14 13 11 9 9 11
49 17 10 8 6 4 17 24 35 32 27 19 18 12 15 17 13 13 20 20 21 23 26 28 28 33 35 36 39 41 37 32 29 32 33 32 29 22 16 11 10 10 11 13 14 13 12 10 9 8 8 10 13 17
15 9 9 9 5 19 26 11 16 11 12 9 7 10 12 10 8 11 30 24 22 25 30 34 35 32 30 30 30 32 33 31 29 30 30 26 21 19 15 13 10 12 13 13 13 12 10 9 7 8 11 14 19 23
10 10 14 16 10 10 15 13 8 7 9 8 8 7 7 9 10 11 27 33 29 32 33 31 25 23 23 22 22 23 23 23 21 18 12 3 10 11 9 9 11 12 11 9 6 4 4 7 11 14 18 22 25 27
Wind_Direction_850mb
56 74 98 97 84 101 115 119 126 139 133 127 113 99 73 59 51 49 108 120 113 107 142 139 142 134 128 151 155 151 142 182 166 198 224 175 240 184 242 264 186 191 186 197 218 242 253 137 146 222 354 354 360 225
35 89 111 121 116 120 132 139 141 152 150 141 136 117 89 71 51 48 63 73 112 118 140 140 142 147 160 158 127 168 25 149 152 154 226 170 209 195 308 259 206 237 226 226 215 227 330 250 262 271 274 302 287 229
112 55 156 148 152 149 158 158 159 165 174 172 167 168 138 48 33 30 33 35 56 95 102 128 137 153 165 171 154 189 200 180 182 172 149 9 246 188 223 233 236 224 195 234 272 232 249 262 269 268 265 268 262 223
224 195 227 183 175 175 174 176 176 183 197 208 221 230 251 287 310 335 351 6 25 80 132 195 204 183 208 202 204 208 223 205 186 169 182 216 257 200 254 318 253 331 157 213 253 266 283 272 263 267 272 253 239 234
231 203 179 188 190 187 190 193 195 198 202 209 229 247 262 282 295 305 313 310 295 236 95 115 206 224 219 209 218 223 225 197 178 172 199 232 184 204 184 290 246 189 222 215 248 241 226 261 283 293 268 249 241 237
232 215 200 187 182 189 201 210 213 213 216 216 224 246 262 273 280 305 300 313 234 216 67 197 245 217 201 168 192 185 207 222 228 230 227 218 227 254 263 252 247 233 234 236 249 264 250 259 267 271 271 267 248 237
220 212 217 206 184 168 192 203 225 224 225 221 231 253 260 264 268 255 237 192 269 221 172 133 218 251 188 186 191 194 206 237 231 278 233 274 183 238 250 255 260 257 262 259 254 260 268 265 258 256 254 254 250 245
214 207 209 202 206 187 173 173 144 178 211 223 229 239 250 254 261 256 240 252 233 164 173 196 144 193 167 164 132 135 220 224 279 304 258 264 245 237 256 246 261 260 259 257 258 258 258 259 260 254 248 245 243 242
217 217 216 204 199 203 193 185 203 177 172 159 150 173 100 168 185 193 165 128 158 187 214 199 216 163 166 117 99 92 198 237 272 250 167 259 196 228 232 249 253 266 258 282 277 260 255 257 257 251 250 247 244 244
224 225 229 222 203 203 206 204 210 234 210 217 243 252 256 258 141 127 143 190 215 231 209 209 149 139 125 165 135 218 199 268 246 112 313 230 255 255 259 260 266 267 272 269 265 271 275 271 268 261 256 252 252 252
225 225 228 231 220 210 212 210 196 222 234 216 231 241 221 160 159 189 173 207 318 218 197 151 169 135 172 168 172 211 179 151 259 108 265 246 267 245 281 245 167 244 264 268 261 259 261 267 268 268 263 255 246 243
223 224 224 228 226 217 215 213 196 214 209 221 215 173 171 193 173 224 192 216 224 249 159 169 153 135 156 153 179 174 235 182 262 360 258 257 248 262 252 241 254 283 273 271 265 252 249 256 257 258 256 244 237 236
221 221 221 220 221 215 209 196 198 203 212 188 217 202 183 192 192 212 196 200 227 173 173 161 130 144 124 127 91 197 212 228 56 228 242 240 264 256 248 229 265 282 266 265 263 253 247 245 248 250 248 237 229 226
221 217 216 214 215 211 203 197 195 191 176 208 192 233 209 192 237 203 205 133 156 150 152 137 116 137 139 142 43 227 66 294 248 238 237 240 246 281 240 239 251 285 285 271 265 254 246 241 238 240 242 237 228 223
219 217 216 215 214 204 197 203 195 183 195 217 194 231 214 229 225 220 176 145 152 152 142 119 102 156 123 121 20 119 182 243 228 234 232 247 235 208 214 247 272 288 286 279 276 266 253 244 239 234 232 227 220 216
209 214 216 213 209 198 202 188 186 184 220 225 228 238 213 203 193 208 199 190 167 158 143 124 129 160 190 143 176 212 215 228 234 218 237 246 249 244 257 271 287 290 281 280 283 275 258 248 243 239 231 227 222 222
194 209 211 206 203 197 186 181 172 196 223 222 239 222 202 256 205 178 188 188 174 160 185 152 182 196 106 205 234 203 217 221 217 226 220 237 246 258 272 278 286 290 287 283 283 276 264 245 238 236 233 230 226 225
203 211 205 200 204 185 182 176 192 214 229 227 216 212 206 209 195 194 189 176 168 193 169 200 138 191 206 205 218 222 228 239 243 234 235 247 254 258 267 279 284 289 290 285 280 271 258 245 241 240 235 232 229 228
203 206 201 202 187 171 178 198 210 226 223 216 221 218 212 219 216 211 197 186 185 182 177 178 234 211 217 219 230 237 244 246 256 265 263 268 258 247 251 266 279 288 294 292 287 280 270 259 251 241 234 233 234 235
201 202 202 192 180 176 195 205 194 227 203 201 203 189 193 205 208 207 200 189 185 177 220 219 224 222 214 231 243 262 273 274 268 269 271 272 263 257 271 276 271 272 283 291 290 285 272 258 245 235 230 231 234 237
185 179 192 189 187 197 209 196 199 198 179 179 174 165 182 175 178 169 184 180 195 220 236 232 242 246 249 256 262 267 270 273 273 277 279 278 270 274 279 275 267 267 273 278 279 276 268 258 248 238 234 235 238 242
170 182 178 177 181 200 227 205 201 167 160 152 154 167 156 177 171 172 169 194 233 232 227 245 252 259 265 271 274 274 276 276 276 274 272 272 271 272 273 274 271 269 272 273 268 264 263 254 245 236 233 234 236 239
165 162 165 162 188 200 202 188 175 176 160 168 150 160 186 171 180 164 231 231 248 250 251 255 260 264 269 273 275 278 280 278 274 272 271 272 273 273 272 272 269 268 267 265 262 258 258 251 244 238 234 232 235 238
163 162 160 184 198 147 154 147 158 143 132 169 177 186 179 155 159 189 252 247 246 250 265 274 267 268 274 280 291 300 292 284 282 280 277 273 271 275 275 272 269 266 264 261 252 250 251 252 248 242 240 240 241 244
142 172 181 170 168 125 148 139 155 199 188 169 173 168 170 159 190 216 236 257 237 218 205 261 277 282 292 308 341 359 5 347 321 317 311 295 288 283 284 281 274 266 256 253 249 249 249 252 251 248 247 248 250 252
180 182 182 168 156 173 167 153 188 178 145 160 171 119 146 166 194 239 219 234 208 193 197 191 318 309 315 334 344 347 341 347 348 342 326 322 312 305 302 290 275 252 254 255 253 250 247 249 250 249 250 251 252 255
172 155 150 145 148 141 116 103 140 161 174 177 163 167 165 193 227 233 185 169 170 185 217 304 323 328 332 340 339 336 334 335 331 324 320 313 307 305 303 299 291 273 256 254 246 243 247 250 251 251 253 254 257 260
141 155 152 171 145 170 135 151 160 189 166 145 140 181 178 200 230 159 144 150 169 303 321 325 330 328 323 320 316 314 313 312 309 305 303 301 297 293 288 288 286 272 259 258 259 253 246 245 248 250 252 255 255 258
112 138 125 117 133 179 203 182 198 189 162 168 168 161 172 124 123 121 107 70 346 325 317 314 316 314 313 312 311 309 306 303 301 298 294 292 294 287 285 282 276 268 259 248 245 242 242 238 235 237 239 240 245 254
144 156 108 139 158 194 192 183 164 160 155 150 136 122 121 125 111 71 33 9 346 334 330 328 325 322 318 314 311 313 310 306 299 292 289 289 291 290 284 276 265 254 247 241 234 232 229 221 214 215 223 231 247 267
142 138 105 110 120 131 145 143 145 143 142 151 146 130 135 142 128 52 20 1 351 343 336 331 329 324 321 318 317 317 322 313 303 295 292 287 270 268 258 259 255 237 217 202 194 194 195 195 196 211 241 265 275 280
140 152 138 121 120 141 139 133 141 135 141 140 127 126 128 121 92 47 11 6 0 357 356 349 342 340 332 329 327 325 322 322 315 306 298 287 251 238 245 267 235 203 189 178 171 172 181 203 230 256 270 280 288 293
104 93 93 112 122 178 169 138 124 93 85 85 67 85 81 84 92 53 20 14 11 6 1 356 349 351 355 355 355 354 353 351 349 347 340 251 206 227 227 182 156 149 150 158 178 209 251 278 286 292 295 297 297 297